[[{"header":{"parameterUnit":"m.s-1","parameterCategory":1,"la1":30.2991,"la2":30.254,"lo1":-89.0895,"lo2":-89.0444,"dy":0.0017,"dx":0.0017,"nx":28,"ny":28,"refTime":"2023-10-13T21:00:00:Z","depth":0,"parameterNumber":2,"parameterNumberName":"U-component_of_WINDS"},"data":[0,0,0,0,0,0,0,0,0,0,0,0,0,0,0,0,0,0,0,0,0,0,0,0,0,0,0,0,0,0,0,0,0,0,0,0,0,0,0,0,0,0,0,0,0,0,0,0,0,0,0,0,0,0,0,0,0,0,2.8548,2.8548,0,2.8573,2.8573,2.8574,2.8543,2.8542,2.8541,2.854,2.8564,2.8566,2.8567,0,0,0,0,0,0,0,0,0,0,0,0,0,2.8472,2.8474,2.8548,2.8548,2.8548,2.8573,2.8573,2.8574,2.8543,2.8542,2.8541,2.8539,2.8564,2.8566,2.8568,0,0,0,0,0,0,0,0,0,0,0,0,0,2.8502,2.8474,2.8548,2.8536,2.8536,2.8573,2.8573,2.8574,2.8544,2.8542,2.854,2.8539,2.8563,2.8565,2.8568,2.8617,0,0,2.8576,2.8577,0,0,0,0,0,0,0,0,2.85,2.8505,2.8538,2.8537,2.8536,2.8553,2.8556,2.8588,2.8544,2.8541,2.854,2.8538,2.8562,2.8564,2.8573,2.8618,2.8619,2.8576,2.8577,2.8578,2.8579,0,0,0,0,0,0,0,2.8498,2.8503,2.8558,2.8538,2.8537,2.853,2.8532,2.8562,2.856,2.8541,2.8539,2.8542,2.8561,2.857,2.8573,2.862,2.8576,2.8578,2.858,2.8581,2.8708,2.871,0,0,0,0,0,0,2.8498,2.8502,2.8557,2.8558,2.8514,2.8532,2.8535,2.855,2.856,2.856,2.8544,2.8541,2.8567,2.857,2.8574,2.8632,2.8578,2.8581,2.8582,2.8706,2.8709,2.8711,0,0,0,0,0,0,2.8496,2.8503,2.8556,2.853,2.8536,2.8535,2.8552,2.8551,2.856,2.8562,2.8561,2.8553,2.8566,2.857,2.8607,2.8633,2.8582,2.8584,2.8704,2.8707,2.871,2.875,0,0,0,0,0,0,2.8494,2.8503,2.8521,2.853,2.8537,2.8589,2.8554,2.8553,2.8565,2.8561,2.8571,2.8571,2.8565,2.8603,2.861,2.8635,2.8586,2.8702,2.8705,2.8709,2.8747,2.8754,2.8761,0,0,0,0,0,2.8492,2.8531,2.8523,2.8529,2.8561,2.8591,2.8594,2.8587,2.8567,2.8586,2.8587,2.8571,2.8629,2.8607,2.8614,2.8641,2.87,2.8704,2.8708,2.8743,2.8753,2.876,0,0,0,0,0,0,2.8524,2.8532,2.8522,2.8566,2.8578,2.8585,2.8609,2.8597,2.8614,2.861,2.8599,2.8602,2.8641,2.8645,2.862,2.869,2.8661,2.8667,2.8686,2.8694,2.8701,2.8699,2.8588,0,0,0,0,0,2.8537,2.8561,2.8566,2.8604,2.8611,2.8609,2.8622,2.8615,2.8626,2.8631,2.8635,2.8646,2.8667,2.8681,2.8701,2.8748,2.8749,2.877,2.8777,2.8782,2.8787,2.8812,2.8821,2.8724,2.8724,2.8724,0,0,2.8562,2.857,2.8585,2.8611,2.8619,2.8644,2.8613,2.864,2.8658,2.8635,2.867,2.8674,2.8686,2.8728,2.8747,2.8732,2.8814,2.8788,2.8792,2.8794,2.8818,2.8827,2.8835,2.8727,2.8727,2.8726,0,0,2.8621,2.863,2.8662,2.8672,2.8685,2.8684,2.8692,2.8702,2.8703,2.8739,2.8722,2.8743,2.878,2.8789,2.8799,2.8864,2.8849,2.887,2.8906,2.8931,2.8939,2.8945,2.8968,2.8976,2.8875,2.8875,2.8875,0,2.8651,2.8688,2.8681,2.8709,2.8721,2.8703,2.8736,2.8745,2.8764,2.8772,2.8757,2.8803,2.8809,2.8854,2.887,2.8878,2.8887,2.8868,2.8938,2.8945,2.8951,2.8973,2.8981,2.8878,2.8878,2.8877,2.8877,0,2.8724,2.875,2.8775,2.8794,2.8809,2.884,2.8837,2.8853,2.8846,2.8847,2.8883,2.8891,2.8912,2.8923,2.8915,2.8966,2.8957,2.894,2.8911,2.8963,2.8983,2.8991,2.8881,2.8881,2.888,2.8879,0,0,2.8802,2.8819,2.8828,2.8837,2.8852,2.8871,2.8902,2.8923,2.8937,2.8951,2.8976,2.9008,2.8993,2.9004,2.8998,2.902,2.9071,2.9,2.9,2.9013,2.9127,2.9139,2.9149,2.9062,2.9063,2.9065,2.9126,0,2.8861,2.8914,2.8909,2.8959,2.8983,2.8966,2.8993,2.9004,2.9006,2.9027,2.9029,2.9051,2.903,2.9037,2.9058,2.906,2.9093,2.9056,2.9084,2.9085,2.908,2.9159,2.9172,2.9229,2.9134,2.9135,2.9136,0,2.8936,2.8954,2.9007,2.9018,2.9028,2.9052,2.9072,2.9092,2.9105,2.9105,2.9118,2.9109,2.9139,2.9111,2.9152,2.9127,2.9139,2.9142,2.9144,2.9145,2.9113,2.9162,2.9247,2.9255,2.9149,2.9148,2.9147,0,2.8987,2.9025,2.9061,2.907,2.9084,2.9101,2.9108,2.912,2.9133,2.9151,2.9159,2.918,2.9191,2.9207,2.9204,2.9183,2.9246,2.9217,2.9246,2.9247,2.9259,2.9258,2.9347,2.9269,2.9269,2.9268,2.9268,0,2.9053,2.9085,2.9084,2.9107,2.9143,2.9138,2.9174,2.9178,2.9189,2.9212,2.9199,2.9221,2.9215,2.9237,2.9235,2.9269,2.9275,2.9275,2.9274,2.9276,2.9275,2.9282,2.9277,2.9271,2.927,2.927,2.9269,0,2.9115,2.9116,2.9155,2.9166,2.917,2.9196,2.9206,2.9227,2.9228,2.9257,2.9264,2.9266,2.9291,2.929,2.9317,2.9316,2.9359,2.9353,2.9354,2.9353,2.9382,2.9379,2.9476,2.9489,2.9404,2.9405,2.9405,0,2.9156,2.9181,2.9196,2.9211,2.9219,2.9243,2.9257,2.9253,2.9268,2.9286,2.9305,2.9329,2.9348,2.9388,2.9392,2.9414,2.9408,2.9441,2.9411,2.9412,2.9407,2.9406,2.9408,2.9446,2.9447,2.9448,2.9448,0,2.9229,2.9229,2.925,2.9272,2.9289,2.9306,2.9321,2.9334,2.9332,2.935,2.9375,2.939,2.9419,2.9443,2.9464,2.947,2.9459,2.9458,2.9466,2.9467,2.9467,2.9467,2.9369,2.9456,2.9455,2.9454,2.9454,2.9454,2.9281,2.9303,2.9317,2.9341,2.9353,2.9368,2.9388,2.9393,2.9415,2.9439,2.9435,2.9464,2.9478,2.9504,2.9513,2.9536,2.9524,2.9535,2.9538,2.954,2.9543,2.9465,2.954,2.9539,2.9539,2.9539,2.9539,0,2.9353,2.9361,2.9384,2.9406,2.9426,2.9415,2.9432,2.9448,2.9474,2.9488,2.9507,2.9537,2.9561,2.9567,2.959,2.9606,2.9602,2.9612,2.961,2.9612,2.9553,2.9544,2.9616,2.9616,2.9616,2.9616,2.9616,2.9616,2.9392,2.9428,2.9429,2.9471,2.948,2.9508,2.9519,2.9533,2.9544,2.9578,2.9598,2.9603,2.9614,2.9637,2.9658,2.966,2.9668,2.9681,2.968,2.9624,2.9616,2.9609,2.96,2.9683,2.9683,2.9737,2.9738,2.9738]},{"header":{"parameterUnit":"m.s-1","parameterCategory":1,"la1":30.2991,"la2":30.254,"lo1":-89.0895,"lo2":-89.0444,"dy":0.0017,"dx":0.0017,"nx":28,"ny":28,"refTime":"2023-10-13T21:00:00:Z","depth":0,"parameterNumber":3,"parameterNumberName":"V-component_of_WINDS"},"data":[0,0,0,0,0,0,0,0,0,0,0,0,0,0,0,0,0,0,0,0,0,0,0,0,0,0,0,0,0,0,0,0,0,0,0,0,0,0,0,0,0,0,0,0,0,0,0,0,0,0,0,0,0,0,0,0,0,0,-6.3223,-6.3226,0,-6.3428,-6.343,-6.3432,-6.3378,-6.3374,-6.337,-6.3366,-6.3572,-6.3581,-6.359,0,0,0,0,0,0,0,0,0,0,0,0,0,-6.2783,-6.2792,-6.3223,-6.3226,-6.3228,-6.3427,-6.343,-6.3433,-6.3379,-6.3374,-6.3369,-6.3364,-6.3569,-6.358,-6.3591,0,0,0,0,0,0,0,0,0,0,0,0,0,-6.298,-6.2795,-6.3223,-6.3225,-6.3228,-6.3427,-6.343,-6.3434,-6.338,-6.3374,-6.3368,-6.3362,-6.3565,-6.3579,-6.3592,-6.38,0,0,-6.3635,-6.3641,0,0,0,0,0,0,0,0,-6.2969,-6.2996,-6.3222,-6.3226,-6.3229,-6.3371,-6.335,-6.3556,-6.3382,-6.3322,-6.3366,-6.3359,-6.351,-6.3528,-6.3579,-6.381,-6.3818,-6.3636,-6.3644,-6.365,-6.3654,0,0,0,0,0,0,0,-6.2955,-6.2987,-6.3304,-6.3226,-6.323,-6.3216,-6.3237,-6.3389,-6.3447,-6.3327,-6.3323,-6.3349,-6.351,-6.3566,-6.3584,-6.3821,-6.3636,-6.3648,-6.3656,-6.3662,-6.4234,-6.4241,0,0,0,0,0,0,-6.294,-6.2976,-6.3297,-6.331,-6.3081,-6.3229,-6.3252,-6.3332,-6.3446,-6.3457,-6.3354,-6.3345,-6.3545,-6.3568,-6.3591,-6.3843,-6.365,-6.3663,-6.3671,-6.4227,-6.4236,-6.4243,0,0,0,0,0,0,-6.293,-6.2969,-6.3289,-6.3142,-6.3182,-6.3243,-6.3332,-6.3339,-6.3395,-6.3466,-6.3476,-6.34,-6.3542,-6.3571,-6.3749,-6.385,-6.367,-6.3682,-6.4219,-6.423,-6.4239,-6.4349,0,0,0,0,0,0,-6.2918,-6.2966,-6.3046,-6.3145,-6.319,-6.3445,-6.3338,-6.3347,-6.3419,-6.3411,-6.3512,-6.3523,-6.3539,-6.3729,-6.3763,-6.3866,-6.3693,-6.421,-6.4224,-6.4236,-6.4337,-6.4362,-6.4383,0,0,0,0,0,-6.2903,-6.3067,-6.305,-6.3089,-6.3292,-6.3451,-6.3477,-6.3493,-6.3428,-6.3509,-6.3554,-6.352,-6.3833,-6.3747,-6.3785,-6.3894,-6.4204,-6.422,-6.4235,-6.4326,-6.4357,-6.4383,0,0,0,0,0,0,-6.2978,-6.308,-6.3063,-6.3264,-6.335,-6.3442,-6.3544,-6.3524,-6.3629,-6.3616,-6.363,-6.3653,-6.3836,-6.3882,-6.3785,-6.4102,-6.4009,-6.4033,-6.4065,-6.4095,-6.4118,-6.4103,-6.3705,0,0,0,0,0,-6.3018,-6.314,-6.3222,-6.3393,-6.3437,-6.3483,-6.3553,-6.3558,-6.3647,-6.3682,-6.3741,-6.3827,-6.3945,-6.4022,-6.4134,-6.4342,-6.4365,-6.4436,-6.4459,-6.4478,-6.4499,-6.4614,-6.4647,-6.4294,-6.4294,-6.4293,0,0,-6.3102,-6.3173,-6.3249,-6.341,-6.3476,-6.3602,-6.3514,-6.365,-6.3743,-6.3702,-6.3875,-6.3921,-6.4018,-6.4213,-6.4301,-6.4257,-6.4601,-6.4497,-6.4512,-6.4523,-6.4633,-6.4667,-6.4697,-6.4304,-6.4302,-6.4301,0,0,-6.332,-6.3386,-6.3536,-6.3605,-6.3708,-6.3738,-6.3774,-6.387,-6.39,-6.4073,-6.4045,-6.4156,-6.4358,-6.4429,-6.4491,-6.4738,-6.4711,-6.4773,-6.4896,-6.5008,-6.5036,-6.5061,-6.515,-6.5182,-6.4794,-6.4794,-6.4794,0,-6.3411,-6.3601,-6.3615,-6.3755,-6.3827,-6.3797,-6.3949,-6.4014,-6.4148,-6.4198,-6.4146,-6.4401,-6.4464,-6.4676,-6.4737,-6.4787,-6.4829,-6.4763,-6.5031,-6.5056,-6.5079,-6.5165,-6.5199,-6.4801,-6.48,-6.48,-6.4799,0,-6.3709,-6.3841,-6.3949,-6.4082,-6.4165,-6.431,-6.4346,-6.4429,-6.4427,-6.4462,-6.464,-6.4715,-6.4842,-6.4892,-6.489,-6.5105,-6.5075,-6.5027,-6.4934,-6.512,-6.5201,-6.5234,-6.4811,-6.4809,-6.4807,-6.4805,0,0,-6.398,-6.412,-6.4159,-6.422,-6.4331,-6.4433,-6.4577,-6.4703,-6.4775,-6.4868,-6.4989,-6.5162,-6.5119,-6.519,-6.5196,-6.5295,-6.5487,-6.5235,-6.5238,-6.5281,-6.573,-6.5767,-6.5805,-6.5469,-6.5476,-6.5481,-6.5723,0,-6.421,-6.4465,-6.4482,-6.4713,-6.4835,-6.4809,-6.4934,-6.5016,-6.5053,-6.5162,-6.5201,-6.5325,-6.5258,-6.5301,-6.5397,-6.5444,-6.5578,-6.5426,-6.5583,-6.5589,-6.5562,-6.5846,-6.5885,-6.611,-6.5754,-6.5759,-6.5763,0,-6.4512,-6.4616,-6.4859,-6.4955,-6.5007,-6.512,-6.5238,-6.5342,-6.5434,-6.5455,-6.5535,-6.5528,-6.5675,-6.5576,-6.578,-6.5676,-6.5741,-6.5774,-6.5783,-6.5799,-6.5688,-6.5873,-6.6182,-6.6217,-6.5813,-6.5809,-6.5805,0,-6.4688,-6.4889,-6.5061,-6.5113,-6.5229,-6.5309,-6.5361,-6.5447,-6.5522,-6.5625,-6.5674,-6.5792,-6.5857,-6.5948,-6.5973,-6.5898,-6.6177,-6.6079,-6.6198,-6.6198,-6.6259,-6.6255,-6.6585,-6.6298,-6.6297,-6.6297,-6.6296,0,-6.4943,-6.5094,-6.5142,-6.5248,-6.5416,-6.5434,-6.5599,-6.5646,-6.5723,-6.5837,-6.582,-6.5928,-6.5953,-6.6065,-6.6085,-6.6252,-6.628,-6.6301,-6.6305,-6.6304,-6.6302,-6.6348,-6.6334,-6.6306,-6.6304,-6.6302,-6.63,0,-6.5169,-6.5208,-6.5394,-6.5489,-6.5516,-6.5636,-6.5717,-6.5819,-6.5853,-6.5998,-6.6033,-6.6088,-6.622,-6.6253,-6.6409,-6.6422,-6.662,-6.6608,-6.659,-6.659,-6.6707,-6.6697,-6.708,-6.7132,-6.6809,-6.6812,-6.6814,0,-6.5331,-6.5446,-6.5554,-6.563,-6.5686,-6.5809,-6.5886,-6.5908,-6.599,-6.6104,-6.6193,-6.6322,-6.6427,-6.6639,-6.6692,-6.6812,-6.6803,-6.693,-6.6821,-6.6817,-6.6808,-6.6802,-6.6814,-6.6951,-6.6954,-6.6957,-6.6959,0,-6.5614,-6.5628,-6.5741,-6.5862,-6.5955,-6.6051,-6.6142,-6.6205,-6.624,-6.6332,-6.6468,-6.655,-6.671,-6.684,-6.6961,-6.7013,-6.6993,-6.6993,-6.7027,-6.7028,-6.7014,-6.7026,-6.6648,-6.6984,-6.6982,-6.698,-6.6978,-6.6977,-6.5814,-6.5916,-6.6009,-6.6136,-6.6207,-6.6294,-6.6395,-6.6443,-6.6557,-6.6691,-6.6696,-6.6844,-6.6934,-6.7095,-6.7154,-6.7269,-6.7231,-6.728,-6.7293,-6.7305,-6.7316,-6.6994,-6.7291,-6.729,-6.7289,-6.7289,-6.7288,0,-6.6099,-6.6157,-6.6274,-6.6403,-6.6504,-6.6477,-6.6577,-6.6662,-6.6793,-6.6879,-6.6984,-6.714,-6.7265,-6.7329,-6.7454,-6.7534,-6.7528,-6.7566,-6.7561,-6.7574,-6.7342,-6.7301,-6.7569,-6.7569,-6.7569,-6.7569,-6.7569,-6.7569,-6.6258,-6.6431,-6.6456,-6.6663,-6.672,-6.6866,-6.6926,-6.7005,-6.7074,-6.725,-6.7355,-6.7396,-6.7474,-6.7604,-6.7719,-6.7734,-6.7781,-6.7825,-6.7836,-6.7619,-6.759,-6.7563,-6.7525,-6.7835,-6.7835,-6.8058,-6.806,-6.8062]}]]